"read_dt","SO2 (ppb)","flags","PMT voltage (V)","lamp voltage (V)","lamp intensity (Hz)","internal temp (C)","react chamber temp (C)","sample flow (l/min)","pres (mmHg)","SO2 bkg (ppb)","SO2 coefficient"
2016-04-11 00:00:00,1830E-3,5C000400,-0724,0838,12128,027.9,045.4,0.255,756.5,01.16,0.508
2016-04-11 00:01:00,1986E-3,5C000400,-0724,0837,12058,028.0,045.4,0.255,756.5,01.16,0.508
2016-04-11 00:02:00,1827E-3,5C000400,-0724,0837,12220,028.0,045.4,0.255,756.5,01.16,0.508
2016-04-11 00:03:00,1963E-3,5C000400,-0724,0836,12204,028.0,045.4,0.255,756.4,01.16,0.508
2016-04-11 00:04:00,1856E-3,5C000400,-0724,0836,12202,028.0,045.4,0.255,756.4,01.16,0.508
2016-04-11 00:05:00,1751E-3,5C000400,-0724,0837,12243,028.0,045.4,0.255,756.4,01.16,0.508
2016-04-11 00:06:00,1708E-3,5C000400,-0724,0837,12122,028.0,045.4,0.255,756.4,01.16,0.508
2016-04-11 00:07:00,1920E-3,5C000400,-0724,0836,12206,028.0,045.4,0.256,756.3,01.16,0.508
2016-04-11 00:08:00,1886E-3,5C000400,-0724,0836,12073,028.0,045.4,0.256,756.3,01.16,0.508
2016-04-11 00:09:00,1892E-3,5C000400,-0724,0837,12214,028.0,045.4,0.256,756.3,01.16,0.508
2016-04-11 00:10:00,1920E-3,5C000400,-0724,0838,11008,028.1,045.4,0.255,756.3,01.16,0.508
2016-04-11 00:11:00,1879E-3,5C000400,-0724,0837,12151,028.1,045.4,0.255,756.3,01.16,0.508
2016-04-11 00:12:00,1861E-3,5C000400,-0724,0837,12138,028.1,045.4,0.255,756.3,01.16,0.508
2016-04-11 00:13:00,1896E-3,5C000400,-0724,0837,11967,028.1,045.4,0.255,756.3,01.16,0.508
2016-04-11 00:14:00,1909E-3,5C000400,-0724,0836,12106,028.1,045.4,0.255,756.3,01.16,0.508
2016-04-11 00:15:00,1832E-3,5C000400,-0724,0837,12145,028.1,045.4,0.255,756.3,01.16,0.508
2016-04-11 00:16:00,1969E-3,5C000400,-0724,0837,12089,028.1,045.4,0.255,756.3,01.16,0.508
2016-04-11 00:17:00,1815E-3,5C000400,-0724,0838,12167,028.1,045.4,0.255,756.2,01.16,0.508
2016-04-11 00:18:00,1843E-3,5C000400,-0724,0841,12194,028.1,045.4,0.255,756.2,01.16,0.508
2016-04-11 00:19:00,1791E-3,5C000400,-0724,0837,12072,028.2,045.4,0.255,756.3,01.16,0.508
2016-04-11 00:20:00,1902E-3,5C000400,-0724,0839,12179,028.2,045.4,0.255,756.3,01.16,0.508
2016-04-11 00:21:00,1950E-3,5C000400,-0724,0838,12166,028.1,045.4,0.255,756.3,01.16,0.508
2016-04-11 00:22:00,1796E-3,5C000400,-0724,0837,12145,028.1,045.4,0.255,756.3,01.16,0.508
2016-04-11 00:23:00,1933E-3,5C000400,-0724,0837,12167,028.2,045.4,0.255,756.2,01.16,0.508
2016-04-11 00:24:00,1968E-3,5C000400,-0724,0841,10967,028.2,045.4,0.255,756.2,01.16,0.508
2016-04-11 00:25:00,1821E-3,5C000400,-0724,0837,12010,028.2,045.4,0.255,756.2,01.16,0.508
2016-04-11 00:26:00,1865E-3,5C000400,-0724,0838,12290,028.2,045.4,0.255,756.2,01.16,0.508
2016-04-11 00:27:00,1961E-3,5C000400,-0724,0839,12141,028.2,045.4,0.255,756.1,01.16,0.508
2016-04-11 00:28:00,1804E-3,5C000400,-0724,0837,12041,028.2,045.4,0.255,756.2,01.16,0.508
2016-04-11 00:29:00,1898E-3,5C000400,-0724,0838,12230,028.3,045.4,0.255,756.2,01.16,0.508
2016-04-11 00:30:00,1922E-3,5C000400,-0724,0837,12073,028.2,045.4,0.254,756.2,01.16,0.508
2016-04-11 00:31:00,1888E-3,5C000400,-0724,0837,12186,028.3,045.4,0.255,756.2,01.16,0.508
2016-04-11 00:32:00,1767E-3,5C000400,-0724,0841,10895,028.3,045.4,0.255,756.2,01.16,0.508
2016-04-11 00:33:00,1733E-3,5C000400,-0724,0838,12243,028.3,045.4,0.255,756.2,01.16,0.508
2016-04-11 00:34:00,1922E-3,5C000400,-0724,0837,10998,028.3,045.4,0.255,756.2,01.16,0.508
2016-04-11 00:35:00,1920E-3,5C000400,-0724,0838,12077,028.3,045.4,0.254,756.2,01.16,0.508
2016-04-11 00:36:00,1737E-3,5C000400,-0724,0839,12117,028.3,045.4,0.255,756.2,01.16,0.508
2016-04-11 00:37:00,1835E-3,5C000400,-0724,0837,12202,028.3,045.4,0.255,756.2,01.16,0.508
2016-04-11 00:38:00,1875E-3,5C000400,-0724,0837,12008,028.3,045.4,0.255,756.2,01.16,0.508
2016-04-11 00:39:00,1842E-3,5C000400,-0724,0838,12322,028.3,045.4,0.255,756.2,01.16,0.508
2016-04-11 00:40:00,1842E-3,5C000400,-0724,0837,12156,028.3,045.4,0.254,756.2,01.16,0.508
2016-04-11 00:41:00,1847E-3,5C000400,-0724,0836,12206,028.3,045.4,0.254,756.2,01.16,0.508
2016-04-11 00:42:00,1860E-3,5C000400,-0724,0836,12039,028.4,045.4,0.255,756.2,01.16,0.508
2016-04-11 00:43:00,1914E-3,5C000400,-0724,0836,12094,028.4,045.4,0.255,756.2,01.16,0.508
2016-04-11 00:44:00,1893E-3,5C000400,-0724,0836,12178,028.4,045.4,0.255,756.2,01.16,0.508
2016-04-11 00:45:00,1917E-3,5C000400,-0724,0836,11112,028.4,045.4,0.254,756.2,01.16,0.508
2016-04-11 00:46:00,1972E-3,5C000400,-0724,0837,12136,028.4,045.4,0.254,756.2,01.16,0.508
2016-04-11 00:47:00,1786E-3,5C000400,-0724,0837,12133,028.4,045.4,0.255,756.2,01.16,0.508
2016-04-11 00:48:00,1898E-3,5C000400,-0724,0837,12272,028.4,045.4,0.255,756.2,01.16,0.508
2016-04-11 00:49:00,1784E-3,5C000400,-0724,0837,12330,028.4,045.4,0.255,756.2,01.16,0.508
2016-04-11 00:50:00,1788E-3,5C000400,-0724,0840,11057,028.4,045.4,0.254,756.2,01.16,0.508
2016-04-11 00:51:00,1934E-3,5C000400,-0724,0840,12349,028.5,045.4,0.254,756.2,01.16,0.508
2016-04-11 00:52:00,1904E-3,5C000400,-0724,0838,12029,028.4,045.4,0.254,756.2,01.16,0.508
2016-04-11 00:53:00,1917E-3,5C000400,-0724,0837,12131,028.5,045.4,0.255,756.2,01.16,0.508
2016-04-11 00:54:00,1821E-3,5C000400,-0724,0837,12191,028.5,045.4,0.255,756.2,01.16,0.508
2016-04-11 00:55:00,1845E-3,5C000400,-0724,0836,11018,028.5,045.4,0.254,756.2,01.16,0.508
2016-04-11 00:56:00,1864E-3,5C000400,-0724,0837,12157,028.5,045.4,0.254,756.2,01.16,0.508
2016-04-11 00:57:00,1878E-3,5C000400,-0724,0837,12208,028.5,045.4,0.254,756.2,01.16,0.508
2016-04-11 00:58:00,1953E-3,5C000400,-0724,0837,11968,028.5,045.4,0.255,756.1,01.16,0.508
2016-04-11 00:59:00,1846E-3,5C000400,-0724,0836,12229,028.5,045.4,0.255,756.2,01.16,0.508
2016-04-11 01:00:00,1826E-3,5C000400,-0724,0837,12282,028.5,045.4,0.254,756.1,01.16,0.508
2016-04-11 01:01:00,1874E-3,5C000400,-0724,0837,12269,028.5,045.4,0.254,756.1,01.16,0.508
2016-04-11 01:02:00,1952E-3,5C000400,-0724,0837,12304,028.5,045.4,0.254,756.1,01.16,0.508
2016-04-11 01:03:00,1881E-3,5C000400,-0724,0837,12059,028.6,045.4,0.254,756.1,01.16,0.508
2016-04-11 01:04:00,1945E-3,5C000400,-0724,0837,10864,028.6,045.4,0.254,756.1,01.16,0.508
2016-04-11 01:05:00,1845E-3,5C000400,-0724,0837,12134,028.6,045.4,0.254,756.1,01.16,0.508
2016-04-11 01:06:00,1973E-3,5C000400,-0724,0837,12187,028.6,045.4,0.254,756.1,01.16,0.508
2016-04-11 01:07:00,1849E-3,5C000400,-0724,0837,12084,028.6,045.5,0.254,756.0,01.16,0.508
2016-04-11 01:08:00,1840E-3,5C000400,-0724,0837,12188,028.6,045.4,0.254,756.0,01.16,0.508
2016-04-11 01:09:00,1816E-3,5C000400,-0724,0838,12103,028.6,045.4,0.255,756.1,01.16,0.508
2016-04-11 01:10:00,1800E-3,5C000400,-0724,0837,12136,028.6,045.4,0.255,756.1,01.16,0.508
2016-04-11 01:11:00,1988E-3,5C000400,-0724,0838,12125,028.6,045.4,0.254,756.1,01.16,0.508
2016-04-11 01:12:00,1814E-3,5C000400,-0724,0837,12121,028.6,045.4,0.254,756.1,01.16,0.508
2016-04-11 01:13:00,1894E-3,5C000400,-0724,0836,10990,028.7,045.4,0.254,756.1,01.16,0.508
2016-04-11 01:14:00,1827E-3,5C000400,-0724,0839,12189,028.7,045.4,0.254,756.1,01.16,0.508
2016-04-11 01:15:00,1967E-3,5C000400,-0724,0837,12060,028.7,045.4,0.254,756.1,01.16,0.508
2016-04-11 01:16:00,1993E-3,5C000400,-0724,0837,12266,028.7,045.4,0.254,756.1,01.16,0.508
2016-04-11 01:17:00,1842E-3,5C000400,-0724,0838,12173,028.7,045.4,0.254,756.1,01.16,0.508
2016-04-11 01:18:00,1911E-3,5C000400,-0724,0836,12046,028.7,045.4,0.254,756.1,01.16,0.508
2016-04-11 01:19:00,1811E-3,5C000400,-0724,0838,12178,028.7,045.4,0.254,756.1,01.16,0.508
2016-04-11 01:20:00,1883E-3,5C000400,-0724,0836,12080,028.7,045.4,0.254,756.1,01.16,0.508
2016-04-11 01:21:00,1796E-3,5C000400,-0724,0838,12124,028.7,045.4,0.254,756.1,01.16,0.508
2016-04-11 01:22:00,1828E-3,5C000400,-0724,0837,12173,028.7,045.4,0.254,756.1,01.16,0.508
2016-04-11 01:23:00,1807E-3,5C000400,-0724,0837,11978,028.8,045.5,0.254,756.1,01.16,0.508
2016-04-11 01:24:00,1940E-3,5C000400,-0724,0837,12252,028.8,045.4,0.254,756.0,01.16,0.508
2016-04-11 01:25:00,1729E-3,5C000400,-0724,0838,12218,028.8,045.4,0.254,756.0,01.16,0.508
2016-04-11 01:26:00,1875E-3,5C000400,-0724,0839,12186,028.8,045.4,0.254,756.1,01.16,0.508
2016-04-11 01:27:00,1968E-3,5C000400,-0724,0837,12334,028.8,045.5,0.254,756.1,01.16,0.508
2016-04-11 01:28:00,1823E-3,5C000400,-0724,0838,12231,028.8,045.4,0.254,756.1,01.16,0.508
2016-04-11 01:29:00,1855E-3,5C000400,-0724,0838,12186,028.9,045.4,0.254,756.0,01.16,0.508
2016-04-11 01:30:00,1828E-3,5C000400,-0724,0839,12128,028.9,045.4,0.253,756.0,01.16,0.508
2016-04-11 01:31:00,1914E-3,5C000400,-0724,0836,12328,028.9,045.4,0.254,756.0,01.16,0.508
2016-04-11 01:32:00,1891E-3,5C000400,-0724,0840,11025,028.9,045.4,0.254,756.0,01.16,0.508
2016-04-11 01:33:00,1955E-3,5C000400,-0724,0839,12244,028.9,045.4,0.254,756.0,01.16,0.508
2016-04-11 01:34:00,1959E-3,5C000400,-0724,0837,12231,028.9,045.5,0.254,756.0,01.16,0.508
2016-04-11 01:35:00,1674E-3,5C000400,-0724,0838,12301,028.9,045.4,0.253,756.0,01.16,0.508
2016-04-11 01:36:00,1893E-3,5C000400,-0724,0837,12190,028.9,045.5,0.254,756.0,01.16,0.508
2016-04-11 01:37:00,1792E-3,5C000400,-0724,0837,12278,028.9,045.4,0.254,756.0,01.16,0.508
2016-04-11 01:38:00,1820E-3,5C000400,-0724,0836,11916,029.0,045.4,0.254,756.0,01.16,0.508
2016-04-11 01:39:00,1877E-3,5C000400,-0724,0837,12032,028.9,045.4,0.254,756.0,01.16,0.508
2016-04-11 01:40:00,1805E-3,5C000400,-0724,0837,11969,029.0,045.4,0.253,756.0,01.16,0.508
2016-04-11 01:41:00,1896E-3,5C000400,-0724,0837,12352,029.0,045.4,0.253,756.0,01.16,0.508
2016-04-11 01:42:00,1885E-3,5C000400,-0724,0838,12152,029.0,045.5,0.254,756.0,01.16,0.508
2016-04-11 01:43:00,2026E-3,5C000400,-0724,0838,12252,029.0,045.5,0.254,756.0,01.16,0.508
2016-04-11 01:44:00,1791E-3,5C000400,-0724,0838,12236,029.0,045.5,0.254,756.0,01.16,0.508
2016-04-11 01:45:00,1945E-3,5C000400,-0724,0838,12113,029.0,045.4,0.254,756.0,01.16,0.508
2016-04-11 01:46:00,1928E-3,5C000400,-0724,0837,12406,029.0,045.4,0.253,756.0,01.16,0.508
2016-04-11 01:47:00,1910E-3,5C000400,-0724,0837,12138,029.0,045.5,0.253,756.0,01.16,0.508
2016-04-11 01:48:00,1812E-3,5C000400,-0724,0836,11031,029.0,045.5,0.254,756.0,01.16,0.508
2016-04-11 01:49:00,1800E-3,5C000400,-0724,0837,12099,029.1,045.4,0.254,755.9,01.16,0.508
2016-04-11 01:50:00,1850E-3,5C000400,-0724,0838,12200,029.1,045.4,0.254,755.9,01.16,0.508
2016-04-11 01:51:00,1724E-3,5C000400,-0724,0836,12091,029.1,045.4,0.253,755.9,01.16,0.508
2016-04-11 01:52:00,1825E-3,5C000400,-0724,0837,10953,029.1,045.4,0.253,755.9,01.16,0.508
2016-04-11 01:53:00,1882E-3,5C000400,-0724,0837,12229,029.1,045.4,0.253,755.9,01.16,0.508
2016-04-11 01:54:00,1817E-3,5C000400,-0724,0837,12369,029.1,045.5,0.253,755.9,01.16,0.508
2016-04-11 01:55:00,1826E-3,5C000400,-0724,0838,12155,029.1,045.5,0.254,755.9,01.16,0.508
2016-04-11 01:56:00,1858E-3,5C000400,-0724,0838,12249,029.1,045.4,0.254,755.9,01.16,0.508
2016-04-11 01:57:00,1791E-3,5C000400,-0724,0836,12138,029.2,045.5,0.253,755.9,01.16,0.508
2016-04-11 01:58:00,1852E-3,5C000400,-0724,0836,11979,029.2,045.5,0.253,755.9,01.16,0.508
2016-04-11 01:59:00,1896E-3,5C000400,-0724,0836,12091,029.1,045.4,0.253,755.9,01.16,0.508
2016-04-11 02:00:00,1897E-3,5C000400,-0724,0836,12090,029.2,045.4,0.253,755.9,01.16,0.508
2016-04-11 02:01:00,1882E-3,5C000400,-0724,0836,11311,029.2,045.5,0.253,755.9,01.16,0.508
2016-04-11 02:02:00,1787E-3,5C000400,-0724,0837,12294,029.2,045.4,0.253,755.9,01.16,0.508
2016-04-11 02:03:00,1804E-3,5C000400,-0724,0837,11078,029.2,045.5,0.253,755.9,01.16,0.508
2016-04-11 02:04:00,1848E-3,5C000400,-0724,0836,12157,029.2,045.5,0.253,755.9,01.16,0.508
2016-04-11 02:05:00,1937E-3,5C000400,-0724,0837,12268,029.2,045.5,0.253,755.9,01.16,0.508
2016-04-11 02:06:00,1870E-3,5C000400,-0724,0837,11974,029.2,045.4,0.253,755.8,01.16,0.508
2016-04-11 02:07:00,1905E-3,5C000400,-0724,0837,12149,029.3,045.4,0.254,755.8,01.16,0.508
2016-04-11 02:08:00,1865E-3,5C000400,-0724,0837,11043,029.3,045.4,0.254,755.8,01.16,0.508
2016-04-11 02:09:00,1872E-3,5C000400,-0724,0836,10745,029.3,045.4,0.254,755.8,01.16,0.508
2016-04-11 02:10:00,1875E-3,5C000400,-0724,0837,11092,029.3,045.5,0.254,755.8,01.16,0.508
2016-04-11 02:11:00,1840E-3,5C000400,-0724,0837,12050,029.3,045.4,0.253,755.8,01.16,0.508
2016-04-11 02:12:00,1848E-3,5C000400,-0724,0838,12134,029.3,045.5,0.253,755.8,01.16,0.508
2016-04-11 02:13:00,1960E-3,5C000400,-0724,0840,12282,029.3,045.5,0.253,755.8,01.16,0.508
2016-04-11 02:14:00,2023E-3,5C000400,-0724,0837,12080,029.3,045.4,0.252,755.8,01.16,0.508
2016-04-11 02:15:00,1844E-3,5C000400,-0724,0838,12497,029.3,045.4,0.253,755.8,01.16,0.508
2016-04-11 02:16:00,1779E-3,5C000400,-0724,0838,12372,029.4,045.5,0.253,755.8,01.16,0.508
2016-04-11 02:17:00,1861E-3,5C000400,-0724,0837,12005,029.3,045.4,0.253,755.8,01.16,0.508
2016-04-11 02:18:00,1847E-3,5C000400,-0724,0839,11072,029.4,045.4,0.253,755.8,01.16,0.508
2016-04-11 02:19:00,1844E-3,5C000400,-0724,0838,12403,029.3,045.4,0.253,755.8,01.16,0.508
2016-04-11 02:20:00,1778E-3,5C000400,-0724,0837,10984,029.4,045.4,0.253,755.8,01.16,0.508
2016-04-11 02:21:00,1769E-3,5C000400,-0724,0839,12255,029.4,045.4,0.253,755.8,01.16,0.508
2016-04-11 02:22:00,1843E-3,5C000400,-0724,0838,12284,029.4,045.5,0.252,755.8,01.16,0.508
2016-04-11 02:23:00,1901E-3,5C000400,-0724,0838,12212,029.4,045.5,0.253,755.7,01.16,0.508
2016-04-11 02:24:00,1937E-3,5C000400,-0724,0839,12383,029.4,045.5,0.253,755.7,01.16,0.508
2016-04-11 02:25:00,1913E-3,5C000400,-0724,0838,12115,029.4,045.5,0.253,755.7,01.16,0.508
2016-04-11 02:26:00,1837E-3,5C000400,-0724,0838,12101,029.4,045.4,0.253,755.7,01.16,0.508
2016-04-11 02:27:00,1861E-3,5C000400,-0724,0838,12064,029.4,045.5,0.253,755.8,01.16,0.508
2016-04-11 02:28:00,1977E-3,5C000400,-0724,0837,12339,029.4,045.5,0.253,755.7,01.16,0.508
2016-04-11 02:29:00,1895E-3,5C000400,-0724,0838,12209,029.5,045.5,0.252,755.7,01.16,0.508
2016-04-11 02:30:00,1791E-3,5C000400,-0724,0840,12203,029.5,045.5,0.252,755.7,01.16,0.508
2016-04-11 02:31:00,1930E-3,5C000400,-0724,0837,12203,029.5,045.5,0.253,755.7,01.16,0.508
2016-04-11 02:32:00,1911E-3,5C000400,-0724,0839,12187,029.5,045.5,0.253,755.7,01.16,0.508
2016-04-11 02:33:00,1884E-3,5C000400,-0724,0839,12211,029.5,045.4,0.253,755.7,01.16,0.508
2016-04-11 02:34:00,1927E-3,5C000400,-0724,0838,12282,029.5,045.5,0.253,755.7,01.16,0.508
2016-04-11 02:35:00,1770E-3,5C000400,-0724,0840,12084,029.5,045.4,0.253,755.7,01.16,0.508
2016-04-11 02:36:00,1904E-3,5C000410,-0724,0837,12341,029.5,045.5,0.253,755.7,01.16,0.508
2016-04-11 02:37:00,1911E-3,5C000400,-0724,0838,12320,029.5,045.5,0.252,755.7,01.16,0.508
2016-04-11 02:38:00,1868E-3,5C000400,-0724,0838,12229,029.6,045.5,0.252,755.7,01.16,0.508
2016-04-11 02:39:00,1951E-3,5C000400,-0724,0838,12227,029.6,045.5,0.252,755.7,01.16,0.508
2016-04-11 02:40:00,1948E-3,5C000400,-0724,0837,12237,029.5,045.5,0.253,755.7,01.16,0.508
2016-04-11 02:41:00,1879E-3,5C000400,-0724,0837,12048,029.6,045.5,0.253,755.7,01.16,0.508
2016-04-11 02:42:00,1891E-3,5C000400,-0724,0838,12195,029.6,045.5,0.253,755.7,01.16,0.508
2016-04-11 02:43:00,2035E-3,5C000400,-0724,0838,12102,029.6,045.5,0.253,755.7,01.16,0.508
2016-04-11 02:44:00,2043E-3,5C000400,-0724,0839,12149,029.6,045.5,0.252,755.7,01.16,0.508
2016-04-11 02:45:00,1998E-3,5C000400,-0724,0838,12276,029.6,045.5,0.252,755.7,01.16,0.508
2016-04-11 02:46:00,1838E-3,5C000400,-0724,0837,12115,029.6,045.5,0.252,755.7,01.16,0.508
2016-04-11 02:47:00,1822E-3,5C000400,-0724,0838,12082,029.6,045.4,0.252,755.7,01.16,0.508
2016-04-11 02:48:00,1833E-3,5C000400,-0724,0838,12234,029.6,045.5,0.252,755.7,01.16,0.508
2016-04-11 02:49:00,1804E-3,5C000400,-0724,0837,12283,029.6,045.5,0.252,755.7,01.16,0.508
2016-04-11 02:50:00,1832E-3,5C000400,-0724,0837,12105,029.7,045.4,0.252,755.7,01.16,0.508
2016-04-11 02:51:00,1887E-3,5C000400,-0724,0837,11043,029.6,045.5,0.253,755.7,01.16,0.508
2016-04-11 02:52:00,1910E-3,5C000400,-0724,0837,11103,029.6,045.5,0.253,755.7,01.16,0.508
2016-04-11 02:53:00,1939E-3,5C000400,-0724,0838,12132,029.7,045.5,0.252,755.7,01.16,0.508
2016-04-11 02:54:00,1942E-3,5C000400,-0724,0837,12111,029.7,045.5,0.252,755.7,01.16,0.508
2016-04-11 02:55:00,1910E-3,5C000400,-0724,0838,11902,029.7,045.5,0.252,755.7,01.16,0.508
2016-04-11 02:56:00,1867E-3,5C000400,-0724,0838,12187,029.7,045.5,0.252,755.7,01.16,0.508
2016-04-11 02:57:00,1822E-3,5C000400,-0724,0837,12197,029.7,045.5,0.252,755.7,01.16,0.508
2016-04-11 02:58:00,1881E-3,5C000400,-0724,0837,11994,029.7,045.5,0.252,755.7,01.16,0.508
2016-04-11 02:59:00,1750E-3,5C000400,-0724,0838,12092,029.7,045.5,0.252,755.7,01.16,0.508
2016-04-11 03:00:00,2021E-3,5C000400,-0724,0839,12202,029.7,045.5,0.252,755.7,01.16,0.508
2016-04-11 03:01:00,1990E-3,5C000400,-0724,0837,12080,029.7,045.5,0.252,755.7,01.16,0.508
2016-04-11 03:02:00,1928E-3,5C000400,-0724,0839,12079,029.7,045.5,0.252,755.7,01.16,0.508
2016-04-11 03:03:00,1841E-3,5C000400,-0724,0837,11017,029.8,045.5,0.252,755.7,01.16,0.508
2016-04-11 03:04:00,1879E-3,5C000400,-0724,0837,12069,029.8,045.5,0.252,755.7,01.16,0.508
2016-04-11 03:05:00,1783E-3,5C000400,-0724,0839,11054,029.8,045.4,0.252,755.7,01.16,0.508
2016-04-11 03:06:00,2002E-3,5C000400,-0724,0838,12102,029.8,045.5,0.252,755.7,01.16,0.508
2016-04-11 03:07:00,1926E-3,5C000400,-0724,0838,12183,029.8,045.5,0.252,755.6,01.16,0.508
2016-04-11 03:08:00,2010E-3,5C000400,-0724,0837,12158,029.8,045.5,0.252,755.6,01.16,0.508
2016-04-11 03:09:00,1895E-3,5C000400,-0724,0840,12181,029.8,045.5,0.252,755.6,01.16,0.508
2016-04-11 03:10:00,1969E-3,5C000400,-0724,0838,12159,029.8,045.5,0.252,755.6,01.16,0.508
2016-04-11 03:11:00,1894E-3,5C000400,-0724,0837,12178,029.8,045.5,0.252,755.7,01.16,0.508
2016-04-11 03:12:00,1912E-3,5C000400,-0724,0838,12208,029.8,045.5,0.252,755.7,01.16,0.508
2016-04-11 03:13:00,1926E-3,5C000400,-0724,0837,11976,029.8,045.5,0.252,755.7,01.16,0.508
2016-04-11 03:14:00,1911E-3,5C000400,-0724,0838,11984,029.9,045.5,0.252,755.7,01.16,0.508
2016-04-11 03:15:00,1821E-3,5C000400,-0724,0837,12154,029.9,045.5,0.252,755.7,01.16,0.508
2016-04-11 03:16:00,1774E-3,5C000400,-0724,0838,11928,029.9,045.5,0.252,755.7,01.16,0.508
2016-04-11 03:17:00,1982E-3,5C000400,-0724,0837,12142,029.9,045.5,0.252,755.7,01.16,0.508
2016-04-11 03:18:00,2038E-3,5C000400,-0724,0838,12093,029.9,045.5,0.252,755.7,01.16,0.508
2016-04-11 03:19:00,1923E-3,5C000400,-0724,0839,12261,029.9,045.5,0.252,755.7,01.16,0.508
2016-04-11 03:20:00,1875E-3,5C000400,-0724,0838,12224,029.9,045.5,0.252,755.7,01.16,0.508
2016-04-11 03:21:00,2026E-3,5C000400,-0724,0840,12051,029.9,045.5,0.252,755.7,01.16,0.508
2016-04-11 03:22:00,1926E-3,5C000400,-0724,0838,12091,029.9,045.5,0.252,755.7,01.16,0.508
2016-04-11 03:23:00,1873E-3,5C000400,-0724,0838,12433,029.9,045.5,0.252,755.7,01.16,0.508
2016-04-11 03:24:00,2046E-3,5C000400,-0724,0838,12249,030.0,045.5,0.251,755.7,01.16,0.508
2016-04-11 03:25:00,1965E-3,5C000400,-0724,0838,12242,030.0,045.5,0.251,755.7,01.16,0.508
2016-04-11 03:26:00,1869E-3,5C000400,-0724,0838,11166,029.9,045.5,0.252,755.7,01.16,0.508
2016-04-11 03:27:00,1889E-3,5C000400,-0724,0838,12132,030.0,045.5,0.252,755.7,01.16,0.508
2016-04-11 03:28:00,1869E-3,5C000400,-0724,0837,12140,030.0,045.5,0.252,755.7,01.16,0.508
2016-04-11 03:29:00,1830E-3,5C000400,-0724,0838,12211,030.0,045.5,0.252,755.7,01.16,0.508
2016-04-11 03:30:00,2074E-3,5C000400,-0724,0837,12097,030.0,045.5,0.252,755.7,01.16,0.508
2016-04-11 03:31:00,2031E-3,5C000400,-0724,0838,12139,030.0,045.5,0.252,755.7,01.16,0.508
2016-04-11 03:32:00,1959E-3,5C000400,-0724,0838,12109,030.0,045.5,0.252,755.7,01.16,0.508
2016-04-11 03:33:00,1925E-3,5C000400,-0724,0838,12188,030.0,045.5,0.251,755.7,01.16,0.508
2016-04-11 03:34:00,1883E-3,5C000400,-0724,0837,12162,030.0,045.5,0.251,755.7,01.16,0.508
2016-04-11 03:35:00,1895E-3,5C000400,-0724,0838,12036,030.0,045.5,0.251,755.7,01.16,0.508
2016-04-11 03:36:00,1954E-3,5C000400,-0724,0838,12048,030.0,045.5,0.252,755.7,01.16,0.508
2016-04-11 03:37:00,1854E-3,5C000400,-0724,0838,12161,030.1,045.5,0.252,755.7,01.16,0.508
2016-04-11 03:38:00,1902E-3,5C000400,-0724,0838,12099,030.1,045.5,0.252,755.7,01.16,0.508
2016-04-11 03:39:00,1903E-3,5C000400,-0724,0839,12251,030.1,045.5,0.252,755.7,01.16,0.508
2016-04-11 03:40:00,2017E-3,5C000400,-0724,0837,12049,030.1,045.5,0.252,755.7,01.16,0.508
2016-04-11 03:41:00,1933E-3,5C000400,-0724,0838,12212,030.1,045.5,0.252,755.7,01.16,0.508
2016-04-11 03:42:00,1945E-3,5C000400,-0724,0839,12149,030.1,045.5,0.252,755.7,01.16,0.508
2016-04-11 03:43:00,1996E-3,5C000400,-0724,0838,12044,030.1,045.5,0.252,755.7,01.16,0.508
2016-04-11 03:44:00,2042E-3,5C000400,-0724,0836,12188,030.1,045.5,0.252,755.7,01.16,0.508
2016-04-11 03:45:00,1950E-3,5C000400,-0724,0838,12073,030.1,045.5,0.251,755.7,01.16,0.508
2016-04-11 03:46:00,1850E-3,5C000400,-0724,0840,12159,030.1,045.5,0.251,755.7,01.16,0.508
2016-04-11 03:47:00,1865E-3,5C000400,-0724,0838,12019,030.1,045.5,0.251,755.7,01.16,0.508
2016-04-11 03:48:00,1917E-3,5C000400,-0724,0837,11939,030.1,045.5,0.251,755.7,01.16,0.508
2016-04-11 03:49:00,1877E-3,5C000400,-0724,0839,12068,030.2,045.5,0.251,755.7,01.16,0.508
2016-04-11 03:50:00,1765E-3,5C000400,-0724,0837,12183,030.2,045.5,0.251,755.7,01.16,0.508
2016-04-11 03:51:00,2111E-3,5C000400,-0724,0838,12105,030.2,045.5,0.251,755.7,01.16,0.508
2016-04-11 03:52:00,1867E-3,5C000400,-0724,0837,12153,030.2,045.5,0.251,755.7,01.16,0.508
2016-04-11 03:53:00,1930E-3,5C000400,-0724,0838,12279,030.2,045.5,0.251,755.7,01.16,0.508
2016-04-11 03:54:00,1925E-3,5C000400,-0724,0837,12232,030.2,045.5,0.251,755.7,01.16,0.508
2016-04-11 03:55:00,2028E-3,5C000400,-0724,0837,12250,030.2,045.5,0.251,755.7,01.16,0.508
2016-04-11 03:56:00,1869E-3,5C000400,-0724,0839,12241,030.2,045.5,0.251,755.7,01.16,0.508
2016-04-11 03:57:00,1924E-3,5C000400,-0724,0837,12214,030.2,045.5,0.252,755.7,01.16,0.508
2016-04-11 03:58:00,1757E-3,5C000400,-0724,0839,12128,030.2,045.5,0.252,755.7,01.16,0.508
2016-04-11 03:59:00,2016E-3,5C000400,-0724,0838,12337,030.3,045.5,0.251,755.7,01.16,0.508
2016-04-11 04:00:00,1917E-3,5C000400,-0724,0836,12137,030.2,045.5,0.251,755.6,01.16,0.508
2016-04-11 04:01:00,1855E-3,5C000400,-0724,0837,12163,030.3,045.5,0.251,755.6,01.16,0.508
2016-04-11 04:02:00,1956E-3,5C000400,-0724,0837,12132,030.3,045.5,0.251,755.6,01.16,0.508
2016-04-11 04:03:00,2014E-3,5C000400,-0724,0837,12081,030.3,045.5,0.251,755.6,01.16,0.508
2016-04-11 04:04:00,1856E-3,5C000400,-0724,0839,12249,030.3,045.5,0.251,755.6,01.16,0.508
2016-04-11 04:05:00,1784E-3,5C000400,-0724,0837,12165,030.3,045.5,0.251,755.6,01.16,0.508
2016-04-11 04:06:00,1842E-3,5C000400,-0724,0839,12258,030.3,045.5,0.251,755.6,01.16,0.508
2016-04-11 04:07:00,1879E-3,5C000400,-0724,0839,12328,030.3,045.5,0.251,755.6,01.16,0.508
2016-04-11 04:08:00,1881E-3,5C000400,-0724,0838,12220,030.3,045.5,0.251,755.6,01.16,0.508
2016-04-11 04:09:00,1826E-3,5C000400,-0724,0838,12123,030.3,045.5,0.251,755.6,01.16,0.508
2016-04-11 04:10:00,1877E-3,5C000400,-0724,0838,12066,030.3,045.5,0.251,755.6,01.16,0.508
2016-04-11 04:11:00,1852E-3,5C000400,-0724,0838,12228,030.3,045.5,0.251,755.6,01.16,0.508
2016-04-11 04:12:00,1912E-3,5C000400,-0724,0838,12269,030.3,045.5,0.251,755.6,01.16,0.508
2016-04-11 04:13:00,1899E-3,5C000400,-0724,0837,12042,030.3,045.5,0.251,755.6,01.16,0.508
2016-04-11 04:14:00,1794E-3,5C000400,-0724,0837,12020,030.3,045.5,0.251,755.6,01.16,0.508
2016-04-11 04:15:00,1886E-3,5C000400,-0724,0838,12067,030.4,045.5,0.251,755.6,01.16,0.508
2016-04-11 04:16:00,1993E-3,5C000400,-0724,0838,12073,030.4,045.5,0.251,755.6,01.16,0.508
2016-04-11 04:17:00,1881E-3,5C000400,-0724,0837,12034,030.4,045.5,0.251,755.6,01.16,0.508
2016-04-11 04:18:00,1917E-3,5C000400,-0724,0838,12267,030.4,045.5,0.251,755.6,01.16,0.508
2016-04-11 04:19:00,1873E-3,5C000400,-0724,0839,12139,030.4,045.5,0.251,755.6,01.16,0.508
2016-04-11 04:20:00,1921E-3,5C000400,-0724,0838,12251,030.4,045.5,0.251,755.6,01.16,0.508